Vorticity
9 11 13 12 11 11 12 12 12 12 12 11 11 10 8 7 7 7 4 1 5 3 4 5 3 3 3 3 4 3 8 6 4
9 9 12 12 12 10 9 9 8 8 8 8 9 10 11 11 11 10 9 7 8 5 6 5 5 4 3 3 3 3 4 10 8
8 8 7 7 8 6 2 4 6 6 6 6 7 8 9 10 10 9 9 10 11 10 10 5 5 4 4 4 3 3 3 4 6
7 7 7 5 5 8 7 6 6 6 7 8 6 4 3 5 6 7 8 8 9 10 9 9 8 7 8 3 6 5 3 4 2
7 7 8 7 8 7 6 6 6 7 7 6 5 5 7 9 8 7 7 6 6 6 6 6 7 9 12 11 5 7 4 4 3
8 9 10 10 9 8 6 6 6 7 6 7 8 10 10 9 8 7 6 6 6 5 5 6 5 2 1 5 8 7 6 7 5
10 10 10 9 8 6 5 6 7 7 8 8 7 7 7 8 8 7 7 6 6 6 6 7 8 8 8 8 5 1 7 5 6
10 10 9 8 6 6 6 7 7 8 8 8 8 7 7 7 7 7 6 6 6 6 6 6 6 7 8 9 9 10 6 1 6
9 9 7 6 5 6 7 7 8 9 9 8 9 8 8 8 7 7 7 7 7 6 6 7 7 7 7 6 6 8 11 13 -1
8 7 6 6 7 8 8 8 8 8 9 9 9 9 9 8 8 8 8 8 8 8 8 9 10 13 15 14 14 14 14 13 13
7 6 6 6 6 5 5 6 6 7 7 7 8 9 8 8 7 7 8 8 8 9 9 12 14 12 10 10 10 12 14 16 22
8 7 7 6 5 5 6 6 7 7 7 7 8 10 11 11 11 11 9 8 9 9 10 12 10 9 12 17 22 17 13 16 23
8 7 6 6 6 7 7 7 7 7 7 7 7 9 9 9 10 10 9 9 8 7 8 10 9 16 14 1 18 35 26 21 17
8 8 8 9 10 10 11 11 10 11 11 10 7 5 8 10 10 8 9 7 7 7 11 9 6 10 10 14 18 15 22 24 25
6 6 7 7 6 6 7 9 10 11 12 13 12 6 6 9 8 10 7 8 9 8 10 9 8 1 10 18 -4 7 32 27 30
7 7 7 6 5 4 3 2 2 6 10 12 13 10 10 10 10 6 7 7 8 9 7 10 10 8 9 13 -2 3 -35 26 21
10 10 10 10 9 10 9 9 8 6 5 9 9 10 11 13 6 9 8 9 7 6 7 7 9 8 -1 12 5 17 -4 8 25
9 9 8 8 8 9 10 11 11 9 9 8 8 10 9 8 12 6 8 6 6 8 8 5 8 10 7 -1 13 -9 23 31 8
7 7 8 9 10 10 10 10 9 10 9 10 9 9 9 10 15 10 8 7 5 7 12 6 8 9 7 -0 -2 4 9 -19 72
7 7 8 9 10 11 11 11 11 11 11 11 11 10 9 8 8 10 8 11 10 7 10 10 4 8 12 2 2 -2 9 15 -3
Height
3154 3152 3150 3149 3147 3147 3146 3146 3146 3146 3146 3146 3146 3146 3146 3146 3146 3147 3147 3147 3147 3148 3148 3148 3148 3148 3148 3148 3149 3150 3150 3151 3152
3151 3150 3148 3147 3146 3144 3143 3143 3143 3143 3143 3142 3142 3142 3141 3141 3141 3142 3142 3142 3143 3143 3144 3144 3145 3145 3145 3145 3146 3146 3147 3148 3148
3149 3147 3146 3146 3145 3144 3142 3140 3140 3140 3140 3139 3139 3139 3138 3138 3137 3137 3137 3137 3138 3138 3140 3140 3140 3141 3141 3141 3141 3142 3143 3144 3144
3148 3147 3144 3142 3142 3142 3141 3141 3138 3137 3136 3136 3136 3135 3135 3134 3134 3133 3133 3132 3133 3134 3134 3134 3135 3134 3136 3137 3137 3138 3138 3139 3140
3145 3144 3143 3142 3140 3139 3138 3138 3137 3136 3134 3133 3132 3132 3131 3131 3130 3129 3128 3128 3129 3129 3129 3129 3129 3130 3130 3131 3132 3132 3133 3134 3134
3143 3142 3140 3139 3138 3138 3136 3134 3134 3133 3132 3130 3129 3128 3127 3127 3126 3125 3123 3124 3124 3123 3123 3123 3123 3123 3123 3124 3125 3126 3126 3127 3128
3140 3139 3138 3136 3135 3134 3134 3133 3131 3129 3128 3127 3124 3124 3123 3122 3121 3120 3119 3119 3118 3118 3117 3117 3116 3116 3116 3116 3117 3118 3119 3119 3121
3138 3137 3135 3134 3133 3132 3130 3129 3127 3126 3124 3123 3122 3120 3119 3118 3117 3116 3115 3114 3113 3111 3110 3110 3109 3108 3107 3107 3107 3108 3109 3110 3112
3136 3135 3134 3132 3131 3129 3128 3126 3124 3122 3121 3119 3118 3116 3115 3114 3112 3111 3110 3109 3107 3105 3104 3102 3101 3099 3099 3098 3097 3097 3098 3099 3101
3133 3132 3131 3129 3127 3126 3124 3122 3120 3119 3117 3115 3114 3112 3110 3109 3107 3106 3104 3103 3102 3100 3098 3096 3094 3092 3091 3089 3087 3085 3084 3085 3087
3131 3129 3128 3126 3124 3122 3120 3119 3116 3114 3113 3111 3110 3108 3106 3104 3102 3101 3100 3098 3095 3094 3091 3089 3088 3085 3082 3079 3076 3074 3073 3073 3075
3129 3127 3126 3124 3121 3119 3117 3115 3113 3111 3109 3107 3105 3103 3101 3099 3097 3096 3094 3093 3090 3087 3085 3084 3082 3078 3075 3073 3069 3065 3061 3060 3060
3126 3125 3123 3121 3119 3117 3114 3112 3109 3107 3105 3103 3101 3099 3097 3095 3093 3091 3090 3087 3085 3082 3080 3079 3076 3074 3067 3063 3060 3054 3050 3047 3045
3124 3122 3120 3118 3115 3112 3110 3107 3105 3103 3101 3099 3096 3095 3093 3091 3089 3086 3085 3082 3080 3078 3077 3074 3072 3068 3064 3059 3053 3046 3042 3037 3034
3121 3118 3116 3113 3111 3108 3106 3104 3100 3098 3097 3095 3091 3090 3089 3086 3084 3082 3079 3077 3075 3075 3073 3071 3067 3065 3061 3055 3050 3044 3040 3033 3027
3117 3115 3112 3109 3107 3104 3102 3100 3098 3094 3092 3090 3087 3085 3083 3081 3079 3077 3074 3072 3070 3070 3068 3066 3064 3062 3056 3051 3047 3041 3038 3030 3024
3114 3111 3108 3106 3103 3100 3097 3095 3093 3090 3087 3086 3084 3081 3080 3077 3074 3072 3069 3068 3067 3066 3064 3061 3059 3059 3053 3050 3045 3039 3036 3029 3025
3110 3107 3105 3101 3099 3096 3093 3091 3089 3087 3083 3080 3079 3077 3075 3073 3070 3067 3064 3063 3062 3062 3060 3058 3055 3054 3050 3047 3044 3039 3033 3029 3026
3107 3104 3101 3098 3094 3091 3089 3086 3084 3082 3080 3077 3074 3071 3069 3066 3068 3065 3062 3059 3056 3057 3057 3054 3050 3051 3048 3044 3042 3038 3030 3023 3024
3103 3101 3098 3094 3091 3088 3085 3082 3079 3077 3075 3073 3071 3068 3065 3062 3060 3059 3059 3057 3054 3052 3052 3050 3047 3046 3046 3042 3040 3036 3035 3030 3029